This is the latest recevied weather packets stored in our database for station/object N4NVD-13. If no packets are shown the sender has not sent any weather packets the latest 10 day(s).
| Time | Temp. | Humidity | Pressure | Rain* | Wind** | Luminosity | Snow |
|---|---|---|---|---|---|---|---|
| 1777385022 | 25.56° C | 94% | 1012 hPa | 0 mm | - | 196 W/m² | - |
| 1777384719 | 25.56° C | 95% | 1012 hPa | 0 mm | - | 160 W/m² | - |
| 1777384418 | 25.56° C | 95% | 1012 hPa | 0 mm | - | 188 W/m² | - |
| 1777384115 | 25° C | 96% | 1011.9 hPa | 0 mm | - | 126 W/m² | - |
| 1777383811 | 25° C | 96% | 1011.8 hPa | 0 mm | - | 87 W/m² | - |
| 1777383507 | 25° C | 97% | 1011.7 hPa | 0 mm | - | 69 W/m² | - |
| 1777383204 | 25° C | 96% | 1011.8 hPa | 0 mm | - | 61 W/m² | - |
| 1777382901 | 25° C | 97% | 1012.1 hPa | 0 mm | - | 55 W/m² | - |
| 1777382596 | 25° C | 97% | 1011.8 hPa | 0 mm | - | 50 W/m² | - |
| 1777382292 | 25° C | 97% | 1011.7 hPa | 0 mm | - | 45 W/m² | - |
| 1777381989 | 25° C | 97% | 1011.7 hPa | 0 mm | - | 48 W/m² | - |
| 1777381683 | 25° C | 97% | 1011.8 hPa | 0 mm | - | 38 W/m² | - |
| 1777381379 | 25° C | 97% | 1011.9 hPa | 0 mm | - | 49 W/m² | - |
| 1777381076 | 24.44° C | 98% | 1011.8 hPa | 0 mm | - | 60 W/m² | - |
| 1777380772 | 24.44° C | 98% | 1011.6 hPa | 0 mm | - | 46 W/m² | - |
| 1777380469 | 24.44° C | 98% | 1011.9 hPa | 0 mm | - | 40 W/m² | - |
| 1777380166 | 24.44° C | 98% | 1011.6 hPa | 0 mm | - | 34 W/m² | - |
| 1777379862 | 24.44° C | 99% | 1011.4 hPa | 0 mm | - | 24 W/m² | - |
| 1777379557 | 24.44° C | 99% | 1011.6 hPa | 0 mm | - | 29 W/m² | - |
| 1777379253 | 24.44° C | 99% | 1011.5 hPa | 0 mm | - | 24 W/m² | - |
| 1777378948 | 24.44° C | 99% | 1011.5 hPa | 0 mm | - | 16 W/m² | - |
| 1777378644 | 24.44° C | 99% | 1011.2 hPa | 0 mm | - | 11 W/m² | - |
| 1777378341 | 24.44° C | 99% | 1011.1 hPa | 0 mm | - | 7 W/m² | - |
| 1777378040 | 24.44° C | 99% | 1011.2 hPa | 0 mm | - | 4 W/m² | - |
| 1777377735 | 24.44° C | 99% | 1011.3 hPa | 0 mm | - | 2 W/m² | - |
* Rain latest hour (hover to see other rain measurements)
** Current wind speed in m/s (hover to see current wind gust speed)